Voltar ao catálogo

GLOBALSTAR M069

AtivoComunicaçõesLEO
NORAD 31573·PAYLOAD·🇺🇸 United States

Lançado May 29, 2007 de Baikonur Cosmodrome

Loading…

Próximas Passagens (próximas 24 horas)

TLE

AtualizadoSource: Space-Track

Época: Sep 14, 2026, 07:34 UTC

1 31573U 07020C   26257.31548356 -.00000065  00000-0  25626-3 0  9991
2 31573  52.0064 359.8564 0001377 345.9193  46.8223 12.23474681889716

Acompanhe GLOBALSTAR M069 em tempo real com AllMySat

Download on the App Store